Regional Weather Roundup
Issued by NWS

Home | Current Version | Previous Version | Text Only | Print | Product List | Glossary Off
Versions: 1 2 3 4 5 6 7 8 9 10 11 12 13 14 15 16 17 18 19 20 21 22 23 24 25 26 27 28 29 30 31 32 33 34 35 36 37 38 39 40 41 42 43 44 45 46 47 48 49 50

000
ASUS45 KPSR 281410
RWRAZ

ARIZONA HOURLY REGIONAL WEATHER ROUNDUP
NATIONAL WEATHER SERVICE PHOENIX AZ
700 AM MST TUE JUL 28 2015

NOTE: FAIR INDICATES FEW OR NO CLOUDS BELOW 12,000 FEET WITH NO
SIGNIFICANT WEATHER AND/OR OBSTRUCTIONS TO VISIBILITY.

AZZ001>003-036-281500-
NORTHWEST ARIZONA

CITY           SKY/WX    TMP DP  RH WIND       PRES   REMARKS
BULLHEAD CITY  SUNNY     81  30  16 CALM      29.85R
KINGMAN        SUNNY     73  35  25 S7        30.02R
$$

AZZ004>008-015-016-018-281500-
NORTH CENTRAL ARIZONA

CITY           SKY/WX    TMP DP  RH WIND       PRES   REMARKS
GRAND CANYON   SUNNY     52  24  33 CALM      30.27R
WILLIAMS       SUNNY     57  32  38 S6        30.34R
PRESCOTT       MOSUNNY   65  38  36 S5        30.16R
FLAGSTAFF      PTSUNNY   61  40  45 CALM      30.30R
PAYSON         CLOUDY    70  48  46 CALM      30.17R
PAGE           SUNNY     75  34  22 NW6       30.10R
$$

AZZ009>014-017-281500-
NORTHEAST ARIZONA

CITY           SKY/WX    TMP DP  RH WIND       PRES   REMARKS
WINSLOW        CLOUDY    72  50  45 SW3       30.15R
SAINT JOHNS    PTSUNNY   67  50  54 S6        30.21R
WINDOW ROCK    MOSUNNY   67  43  41 CALM      30.27R
SHOW LOW       CLOUDY    63  50  63 CALM      30.27R
$$

AZZ023-281500-
GREATER PHOENIX AREA

CITY           SKY/WX    TMP DP  RH WIND       PRES   REMARKS
PHOENIX        PTSUNNY   90  58  33 CALM      29.87R
GLENDALE       PTSUNNY   88  57  35 S6        29.88R
LUKE AFB       PTSUNNY   88  59  37 SW10      29.86R
DEER VALLEY    CLOUDY    87  56  34 SW5       29.89R
SCOTTSDALE     CLOUDY    89  56  32 CALM      29.91R
MESA-FALCON    PTSUNNY   88  57  35 VRB6      29.85F
MESA-GATEWAY   PTSUNNY   82  61  47 E5        29.91R
$$

AZZ027-028-281500-
SOUTHWEST MARICOPA COUNTY AND PINAL COUNTY

CITY           SKY/WX    TMP DP  RH WIND       PRES   REMARKS
CASA GRANDE    MOSUNNY   82  57  42 CALM      29.90R
GILA BEND      FAIR      85  58  40 NE2       29.85R HAZE
$$

AZZ503-504-507>509-281500-
SOUTHEAST ARIZONA

CITY           SKY/WX    TMP DP  RH WIND       PRES   REMARKS
TUCSON         MOSUNNY   82  62  50 S8        30.01R
DAVIS-MONTHAN  MOSUNNY   81  63  54 SE3       30.00R
RYAN FIELD     SUNNY     81  61  50 CALM      30.00R
NOGALES        MOSUNNY   73  63  70 CALM      30.10R
SIERRA VISTA   SUNNY     73  58  60 VRB1      30.15R
DOUGLAS          N/A    N/A N/A N/A MISG      30.11R
SAFFORD        PTSUNNY   80  53  39 CALM      30.01R
$$

AZZ020-021-025-026-031-281500-
SOUTHWEST ARIZONA

CITY           SKY/WX    TMP DP  RH WIND       PRES   REMARKS
YUMA           MOSUNNY   84  66  54 SE5       29.80R
$$

CAZ031-033-041-043-047-048-061-281500-
SOUTHERN CALIFORNIA

CITY           SKY/WX    TMP DP  RH WIND       PRES   REMARKS
DOWNTOWN L.A.  NOT AVBL
L.A. AIRPORT   CLOUDY    68  61  78 CALM      29.90R
SAN DIEGO      CLOUDY    69  61  75 CALM      29.92R
BURBANK        CLOUDY    66  61  84 CALM      29.91R
ONTARIO        SUNNY     66  60  81 CALM      29.91R
RIVERSIDE      SUNNY     65  59  81 CALM      29.91S
PALM SPRINGS   SUNNY     79  56  45 CALM      29.82R
EL CENTRO NAS  MOSUNNY   76  42  29 CALM      29.80R
IMPERIAL       SUNNY     76  58  53 CALM      29.78R
BLYTHE         SUNNY     80  53  39 N3        29.81R
NEEDLES        SUNNY     85  27  12 CALM      29.84R
$$

NVZ020-UTZ003-281500-
SOUTHERN NEVADA-UTAH

CITY           SKY/WX    TMP DP  RH WIND       PRES   REMARKS
LAS VEGAS      SUNNY     83  29  14 NW3       29.90R
SALT LAKE CITY SUNNY     59  38  45 S3        30.26R
$$

NMZ009-TXZ055-281500-
NEW MEXICO-WEST TEXAS

CITY           SKY/WX    TMP DP  RH WIND       PRES   REMARKS
ALBUQUERQUE    PTSUNNY   72  52  49 SE8       30.16R
EL PASO        MOSUNNY   81  56  42 SW12      30.06R
$$


........................KEY........................
SKY/WX - SKY CONDITION/WEATHER
TMP    - TEMPERATURE IN FAHRENHEIT
DP     - DEW POINT IN FAHRENHEIT
RH     - RELATIVE HUMIDITY IN PERCENT
WIND   - DIRECTION AND SPEED IN MILES PER HOUR (MPH)
VRB    - VARIABLE WIND DIRECTION
PRES   - MEAN SEA LEVEL PRESSURE IN INCHES OF MERCURY
         F - FALLING PRESSURE   R - RISING PRESSURE
         S - STEADY PRESSURE
VSB    - VISIBILITY IN MILES
HX     - HEAT INDEX IN FAHRENHEIT
WCI    - WIND CHILL INDEX IN FAHRENHEIT
TC     - TEMPERATURE IN CELSIUS WHICH IS ALSO KNOWN AS
         TEMPERATURE IN CENTIGRADE
AFB    - AIR FORCE BASE
         LUKE AFB IS LUKE AIR FORCE BASE
         DAVIS-MONTHAN IS DAVIS-MONTHAN AIR FORCE BASE
NAS    - NAVAL AIR STATION
         EL CENTRO NAS IS EL CENTRO NAVAL AIR STATION
N/A    - NOT AVAILABLE




USA.gov is the U.S. government's official web portal to all federal, state and local government web resources and services.